Regional Weather Roundup
Issued by NWS Upton, NY

Current Version | Previous Version | Text Only | Print | Product List | Glossary Off
Versions: 1 2 3 4 5 6 7 8 9 10 11 12 13 14 15 16 17 18 19 20 21 22 23 24 25 26 27 28 29 30 31 32 33 34 35 36 37 38 39 40 41 42 43 44 45 46 47 48 49 50

000
ASUS41 KOKX 041204
RWROKX

REGIONAL WEATHER ROUNDUP
NATIONAL WEATHER SERVICE NEW YORK NY
800 AM EDT WED MAY 04 2016

NOTE: "FAIR" INDICATES FEW OR NO CLOUDS BELOW 12,000 FEET WITH NO
SIGNIFICANT WEATHER AND/OR OBSTRUCTIONS TO VISIBILITY.

NYZ071-072-176-178-NJZ106-104-041300-
NEW YORK CITY METRO AREA


CITY           SKY/WX    TMP DP  RH WIND       PRES   REMARKS
CENTRAL PARK   CLOUDY    50  45  83 E7        29.83S
LAGUARDIA APRT CLOUDY    51  47  86 E7        29.81S
KENNEDY INTL   CLOUDY    50  46  86 NE8       29.82S
NEWARK/LIBERTY LGT RAIN  51  47  87 E9        29.81S
BRNX BOT. GARD   N/A     48  45  87 E3        29.81F
TETERBORO      LGT RAIN  50  43  77 CALM      29.80F
$$

NYZ177-179-078>081-041300-
LONG ISLAND NEW YORK

CITY           SKY/WX    TMP DP  RH WIND       PRES   REMARKS
FARMINGDALE    CLOUDY    49  45  86 NE6       29.82F
ISLIP          CLOUDY    49  44  83 NE9       29.80F
SHIRLEY        CLOUDY    49  45  86 CALM      29.82F
RIVERHEAD        N/A     48  46  93 CALM      29.82S
WESTHAMPTON    CLOUDY    45  45 100 E6        29.83R
EAST HAMPTON   CLOUDY    47  44  88 E10       29.81S
MONTAUK POINT    N/A     48  45  89 NE9G20    29.83S
$$

NYZ052-065-067-041300-
HUDSON VALLEY

CITY           SKY/WX    TMP DP  RH WIND       PRES   REMARKS
WHITE PLAINS   CLOUDY    48  46  93 E6        29.80F
NEWBURGH       LGT RAIN  48  46  93 SE7       29.83R FOG
MONTGOMERY     LGT RAIN  49  46  90 E6        29.81S
POUGHKEEPSIE   LGT RAIN  50  46  86 CALM      29.82S FOG
ALBANY         CLOUDY    50  47  89 S7        29.82R
$$

NJZ001-105-106-008-010-013-015-019>022-104-041300-
NEW JERSEY

CITY           SKY/WX    TMP DP  RH WIND       PRES   REMARKS
NEWARK/LIBERTY LGT RAIN  51  47  87 E9        29.81S
TETERBORO      LGT RAIN  50  43  77 CALM      29.80F
CALDWELL       LGT RAIN  49  46  90 NE7       29.81F FOG
MORRISTOWN     LGT RAIN  48  48 100 CALM      29.82S FOG
SOMERVILLE     LGT RAIN  50  47  89 CALM      29.78S FOG
SUSSEX         CLOUDY    50  46  86 E6        29.80S
ANDOVER          N/A     49  46  90 CALM      29.80R
TRENTON        CLOUDY    50  47  89 E13       29.77F
MILLVILLE      CLOUDY    49  48  97 E12       29.74F FOG
ATLANTIC CITY  CLOUDY    49  48  97 NE12      29.76R FOG
WRIGHTSTOWN    CLOUDY    48  48 100 NE10      29.75F FOG
TOMS RIVER     CLOUDY    48  45  87 NE9       29.78S
BELMAR         CLOUDY    48  46  93 NE13      29.79F
$$

PAZ047>061-062-071-041300-
EASTERN PENNSYLVANIA

CITY           SKY/WX    TMP DP  RH WIND       PRES   REMARKS
PHILADELPHIA   CLOUDY    52  47  83 E9        29.77F
ALLENTOWN      LGT RAIN  51  48  89 NE8       29.77F
SCRANTON       LGT RAIN  51  48  89 CALM      29.75S
$$

CTZ002-004>006-009-010-012-RIZ004-006-007-MAZ004-011-015-041300-
SOUTHERN NEW ENGLAND
 IN CT

CITY           SKY/WX    TMP DP  RH WIND       PRES   REMARKS
BRADLEY INTL   LGT RAIN  48  43  82 N7        29.85R
HARTFORD       CLOUDY    51  42  71 NE7       29.85S
DANBURY        CLOUDY    48  43  82 E6        29.84R
WTRBRY/OXFORD  CLOUDY    46  41  81 E6        29.84S
BRIDGEPORT     CLOUDY    50  42  74 E10       29.83S
MERIDEN        CLOUDY    51  41  68 NE5       29.83F
NEW HAVEN      CLOUDY    50  43  77 E5        29.83S
CHESTER        CLOUDY    48  43  81 NE8       29.82F
GROTON         CLOUDY    49  47  93 NE13      29.83S
WILLIMANTIC    CLOUDY    49  41  74 E9        29.85S

 IN RI

CITY           SKY/WX    TMP DP  RH WIND       PRES   REMARKS
PROVIDENCE     CLOUDY    47  43  86 NE9       29.87S
BLOCK ISLAND   CLOUDY    47  44  90 NE13      29.84R
WESTERLY       CLOUDY    49  42  77 NE8       29.84S

 IN MA

CITY           SKY/WX    TMP DP  RH WIND       PRES   REMARKS
BOSTON         CLOUDY    46  43  89 E10       29.90S
WORCESTER      CLOUDY    43  40  89 E9        29.86R
WESTFIELD      LGT RAIN  48  42  80 NE5       29.86R
PROVINCETOWN   MOSUNNY   47  44  90 E10       29.89R
NANTUCKET      PTSUNNY   48  43  82 NE14      29.84R
$$

ANZ330-335-338-340-345-350-353-355-041300-
COASTAL MARINE OBSERVATIONS


STATION/POSITION TIME  SKY/WX   TEMP    WIND        PRES    VSBY  WAVE
                                AIR SEA DIR/SP/G                  HT/PER
                 (UTC)          (F)     (DEG/KT/KT) (MB)    (MI)  (FT/S)
NY HARB ENTRANCE 1050            49 50   70/ 14/ 16 1008.6          4/ 8
20S FIRE ISLAND  1050            48 48   60/ 14/ 16 1008.7          4/ 8
GREAT SOUTH BAY  1100            49 55   70/  8/ 12   N/A
23 SSW MONTAUK P 1150            47 47   70/ 16/ 17 1008.9
15 E BARNEGAT LI 1122               50                N/A           5/ 6
HUDSON CANYON    1050            49 49              1007.2          5/ 6
KINGS POINT      1100            49 53              1009.2
EXECUTION ROCKS  NOT AVBL
CENTRAL LI SOUND 1100            49      80/ 12/ 16   N/A           1
EASTERN LI SOUND 1100            48 47   50/ 12/ 14   N/A
ROBBINS REEF     1100            49      80/ 10/ 12 1008.8
$$


>>>>>>>>>>>>>>>>>>>>>>>>>>>> KEY <<<<<<<<<<<<<<<<<<<<<<<<<<<
>                                                          <
>     SKY/WX - SKY CONDITION/PRESENT WEATHER               <
>     TMP    - TEMPERATURE IN FAHRENHEIT                   <
>     DP     - DEWPOINT IN FAHRENHEIT                      <
>     RH     - RELATIVE HUMIDITY IN PERCENT                <
>     WIND   - DIRECTION AND SPEED IN MPH                  <
>     PRES   - MEAN SEA LEVEL PRESSURE IN INCHES OF HG     <
>     WCI    - WIND CHILL INDEX                            <
>     VSB    - VISIBILITY IN MILES                         <
>     HX     - HEAT INDEX                                  <
>     TC     - TEMPERATURE IN CELSIUS                      <
>     VRB    - VARIABLE WIND DIRECTION                     <
>                                                          <
>>>>>>>>>>>>>>>>>>>>>>>>>>>> KEY <<<<<<<<<<<<<<<<<<<<<<<<<<<





USA.gov is the U.S. government's official web portal to all federal, state and local government web resources and services.